Temp
52 52 52 52 52 53 50 43 34 57 57 37 38 35 43 49 51 56 54 53 47 45 48 46 46 46 50 54 54 49 52 45 37 47 54 59 55 47 47 36 36 41 39 41
52 52 51 51 52 52 48 37 34 54 50 31 34 43 45 48 47 49 50 48 51 50 47 41 47 49 51 53 50 46 48 44 36 41 49 55 50 48 47 43 39 33 32 38
52 51 51 51 51 51 47 34 31 35 40 41 40 38 40 42 51 49 51 50 52 49 44 46 45 47 46 50 52 49 49 43 39 33 40 46 39 44 47 42 30 34 38 44
51 51 51 51 51 50 45 35 33 39 30 32 40 43 43 40 41 50 51 47 46 44 40 42 43 48 51 46 52 51 48 37 42 45 47 47 46 45 46 42 40 31 37 41
51 51 51 51 51 50 42 32 34 39 41 43 38 37 37 39 43 44 42 41 45 45 41 44 41 43 46 42 50 48 50 38 41 38 45 46 43 46 47 47 47 47 46 46
50 50 50 50 50 49 36 35 39 37 36 40 36 35 39 39 43 47 47 45 37 37 41 43 45 47 46 46 44 43 44 38 37 31 42 41 33 42 45 43 49 47 38 48
50 50 50 50 50 48 41 42 40 35 31 34 36 40 43 44 46 43 49 47 41 42 48 50 47 45 45 47 47 49 41 38 37 30 36 21 41 52 52 48 50 53 53 54
50 49 49 49 49 49 41 40 38 35 32 36 39 41 42 46 48 46 46 45 48 50 45 37 34 35 37 40 45 45 47 41 32 27 28 36 41 48 48 46 46 56 53 55
49 49 49 49 48 48 42 40 42 36 34 33 39 34 43 40 41 41 41 49 50 47 39 32 25 25 33 32 38 47 46 44 35 31 25 22 39 50 56 55 36 56 53 51
49 49 48 48 47 46 41 39 44 38 33 40 43 40 41 45 43 40 42 42 41 46 35 29 28 28 39 29 30 33 34 36 30 30 27 34 48 53 55 29 35 52 52 51
48 48 48 48 47 45 41 38 45 43 37 42 47 49 44 44 38 32 42 36 38 36 30 31 32 31 35 34 38 36 34 30 26 30 27 24 53 51 41 48 53 54 55 51
48 48 48 48 47 46 46 39 48 50 40 40 49 51 53 52 51 45 39 35 36 42 35 37 38 32 35 34 27 43 31 39 35 33 29 43 50 47 49 49 49 51 51 51
48 48 48 48 48 48 47 46 46 45 41 41 45 45 53 56 54 56 40 42 46 43 46 40 37 31 38 30 33 36 43 48 37 39 45 48 51 52 51 55 53 54 54 53
48 48 48 48 48 48 48 47 49 47 44 33 40 55 50 57 56 53 52 49 51 50 48 39 36 32 42 34 37 35 40 42 39 39 43 45 48 54 54 53 53 50 50 52
47 48 48 48 48 48 49 51 51 52 41 33 34 44 51 55 54 51 52 49 46 44 38 36 33 40 37 39 37 33 41 37 33 32 44 43 43 45 50 45 50 50 47 45
47 47 48 48 48 48 45 33 49 51 49 34 31 46 46 49 51 49 47 48 46 44 39 37 39 44 37 30 30 41 46 49 49 44 49 49 50 51 52 49 49 49 47 46
47 47 47 48 47 46 37 37 40 47 48 34 32 34 46 49 47 46 45 47 43 41 38 36 37 38 38 32 28 41 46 49 51 52 45 44 44 41 48 45 45 45 45 46
46 46 46 46 46 45 38 45 46 47 38 38 30 32 36 47 36 34 44 38 39 38 36 39 37 39 38 30 40 45 48 49 49 41 43 49 45 45 45 46 44 41 41 40
45 45 44 41 38 33 38 47 47 43 37 31 32 30 29 42 38 39 39 40 31 41 33 36 38 34 31 39 43 45 49 49 50 53 49 46 42 39 40 42 40 38 35 35
45 42 33 32 35 45 43 36 33 32 34 35 32 39 30 38 35 34 35 37 33 30 36 42 34 33 43 47 49 50 51 53 55 49 40 38 37 36 37 39 40 36 34 37
37 33 34 42 46 42 35 31 30 32 30 37 38 39 33 43 33 32 39 33 36 28 35 34 34 33 40 47 48 51 52 53 54 53 53 45 40 37 36 37 36 36 37 37
39 39 42 40 37 34 31 29 34 33 32 41 37 39 42 39 43 33 38 33 36 27 38 34 31 40 49 52 53 54 54 53 53 55 50 47 43 40 36 36 34 36 37 33
41 38 34 34 34 28 28 25 30 32 39 41 42 36 40 38 41 35 35 30 29 38 30 30 38 45 47 47 47 48 52 50 54 52 49 42 38 36 35 34 35 33 29 28
37 33 28 30 29 33 36 38 39 43 42 43 43 38 38 40 34 33 30 35 36 29 27 32 36 37 39 41 40 41 37 36 39 40 41 37 35 34 34 33 31 29 27 26
35 35 30 33 39 38 37 40 41 44 46 46 41 40 40 37 33 36 34 29 28 31 31 31 34 37 37 36 35 34 34 33 34 34 34 34 32 31 30 30 30 28 25 23
38 38 33 37 36 33 34 37 37 46 45 46 43 38 34 33 36 32 30 30 29 29 31 34 37 36 35 34 33 32 33 33 33 33 32 32 30 29 29 29 27 25 23 23
33 32 34 34 34 34 33 39 40 47 42 33 37 32 32 39 34 33 37 30 30 33 33 35 34 32 32 32 32 32 32 32 32 31 31 30 30 30 28 25 25 25 25 23
MSLP
1016.40 1016.59 1016.67 1016.74 1016.95 1017.11 1017.61 1017.61 1016.94 1015.30 1015.76 1016.97 1016.54 1015.48 1014.15 1013.32 1012.04 1011.42 1010.41 1010.20 1010.52 1010.22 1009.53 1009.02 1008.83 1008.73 1008.89 1009.67 1010.14 1009.58 1009.65 1009.66 1008.32 1006.34 1006.52 1006.18 1006.45 1007.54 1008.28 1008.94 1009.14 1008.72 1007.39 1004.51
1016.22 1016.36 1016.42 1016.58 1016.74 1016.97 1017.28 1017.06 1017.21 1015.68 1015.42 1015.38 1015.34 1014.51 1013.87 1013.30 1012.59 1011.56 1010.90 1010.34 1010.01 1010.60 1009.93 1009.82 1009.64 1009.53 1010.61 1010.88 1010.94 1011.12 1011.03 1009.71 1008.56 1007.28 1006.77 1006.39 1006.73 1007.97 1009.36 1010.07 1010.44 1009.41 1008.33 1005.63
1015.84 1016.01 1016.08 1016.24 1016.55 1016.62 1017.30 1017.39 1017.16 1016.44 1015.35 1014.98 1014.53 1014.03 1013.41 1012.46 1011.98 1011.61 1011.24 1010.41 1010.28 1010.00 1010.31 1010.97 1010.12 1010.00 1010.95 1011.90 1011.53 1011.48 1011.24 1010.76 1009.97 1008.88 1007.78 1007.68 1008.28 1008.88 1009.34 1010.06 1010.84 1009.42 1007.82 1006.43
1015.48 1015.58 1015.66 1015.91 1016.17 1016.42 1016.93 1016.41 1016.11 1015.51 1015.14 1014.58 1013.94 1013.35 1012.82 1012.11 1011.35 1010.95 1010.92 1010.59 1010.89 1010.95 1010.77 1010.96 1010.60 1010.49 1010.41 1011.99 1011.32 1011.18 1011.18 1010.97 1010.53 1009.75 1009.15 1008.77 1008.28 1008.78 1008.83 1008.83 1009.33 1009.73 1008.70 1007.30
1014.98 1015.16 1015.35 1015.63 1015.82 1016.27 1016.73 1016.26 1015.39 1014.97 1014.22 1013.58 1013.78 1013.25 1012.67 1011.86 1011.21 1011.11 1011.12 1011.10 1011.26 1011.55 1011.34 1011.26 1011.52 1011.61 1010.93 1011.25 1010.67 1010.49 1010.56 1010.46 1010.76 1010.22 1009.68 1009.22 1008.62 1008.21 1007.89 1008.10 1007.87 1007.50 1007.15 1005.98
1014.56 1014.75 1014.99 1015.16 1015.42 1015.91 1016.00 1016.55 1016.09 1015.38 1013.86 1012.41 1012.08 1011.56 1011.23 1011.45 1011.39 1010.75 1011.01 1011.44 1012.45 1013.01 1013.34 1013.25 1013.34 1013.05 1012.83 1012.28 1011.55 1011.12 1010.66 1011.22 1011.05 1010.56 1010.32 1009.44 1008.69 1007.21 1007.29 1007.07 1006.91 1006.65 1006.23 1005.58
1014.04 1014.17 1014.35 1014.57 1014.82 1015.26 1015.88 1015.92 1016.11 1015.18 1013.30 1011.31 1010.54 1010.20 1010.60 1010.47 1010.17 1010.19 1010.42 1011.59 1012.37 1013.85 1014.38 1013.97 1013.51 1013.54 1013.15 1012.30 1011.53 1011.43 1011.43 1011.64 1011.80 1011.35 1010.99 1009.63 1007.67 1007.29 1006.57 1006.12 1005.68 1005.31 1004.92 1004.74
1013.39 1013.53 1013.74 1013.89 1014.15 1014.46 1015.21 1015.82 1015.73 1014.80 1012.51 1011.91 1011.35 1010.38 1010.14 1010.03 1009.97 1010.28 1010.61 1011.93 1012.54 1013.38 1013.84 1013.98 1013.53 1013.08 1012.65 1011.79 1011.27 1011.14 1011.24 1011.51 1011.64 1011.57 1010.82 1009.40 1008.02 1006.16 1006.11 1005.58 1005.04 1004.59 1004.51 1004.61
1012.93 1013.08 1013.23 1013.35 1013.60 1014.01 1014.77 1014.85 1015.19 1014.57 1013.50 1012.19 1011.15 1010.77 1009.94 1009.57 1009.69 1010.70 1011.48 1012.06 1012.87 1013.44 1013.95 1014.46 1013.91 1012.82 1011.89 1011.13 1010.48 1010.42 1010.69 1011.17 1011.63 1011.35 1010.50 1008.81 1006.88 1006.37 1006.17 1005.70 1004.88 1004.42 1005.02 1005.36
1012.52 1012.67 1012.89 1013.22 1013.57 1013.93 1014.75 1014.46 1014.54 1014.26 1013.55 1012.05 1011.22 1010.34 1009.48 1009.61 1009.97 1010.29 1011.15 1012.00 1012.79 1013.41 1013.85 1013.87 1013.70 1012.91 1011.93 1011.08 1010.69 1010.09 1009.95 1009.93 1010.24 1009.78 1009.68 1008.30 1006.42 1006.33 1005.59 1006.44 1006.11 1005.43 1006.04 1006.04
1012.25 1012.45 1012.72 1013.10 1013.62 1014.04 1014.62 1014.39 1013.82 1013.40 1012.95 1011.69 1010.76 1010.23 1010.16 1010.13 1011.08 1011.32 1011.12 1012.68 1012.94 1013.38 1013.46 1013.27 1012.98 1012.58 1011.79 1011.09 1010.45 1009.94 1009.57 1009.65 1009.94 1010.11 1009.61 1008.48 1006.68 1006.33 1006.23 1005.46 1005.61 1005.06 1005.59 1006.39
1012.17 1012.38 1012.64 1012.96 1013.45 1013.87 1013.82 1013.85 1013.42 1013.19 1013.01 1012.22 1011.57 1010.99 1010.62 1010.30 1010.68 1010.97 1012.28 1012.21 1012.43 1012.20 1012.61 1012.35 1012.13 1012.25 1011.90 1011.31 1010.33 1010.04 1009.27 1008.96 1008.62 1009.19 1009.07 1008.39 1007.39 1007.10 1006.64 1005.67 1006.34 1005.98 1006.49 1007.33
1012.24 1012.49 1012.69 1012.96 1013.15 1013.42 1013.58 1013.27 1013.25 1013.22 1012.79 1012.30 1011.47 1010.74 1010.58 1010.77 1010.93 1010.86 1011.22 1011.81 1011.49 1011.95 1012.24 1012.01 1012.17 1012.20 1011.81 1011.11 1010.29 1010.18 1008.94 1008.53 1008.23 1008.48 1007.55 1007.25 1006.70 1006.14 1005.69 1005.98 1006.23 1006.16 1007.06 1007.77
1012.37 1012.59 1012.78 1012.99 1013.20 1013.41 1013.54 1013.08 1013.12 1012.92 1012.66 1012.18 1010.85 1010.19 1010.19 1010.29 1010.51 1010.93 1011.20 1011.35 1011.01 1011.02 1011.49 1011.98 1012.05 1011.87 1011.40 1011.00 1010.60 1010.02 1009.32 1009.04 1008.28 1007.46 1007.36 1007.22 1006.35 1005.98 1005.60 1006.43 1006.74 1007.26 1007.23 1008.09
1012.36 1012.58 1012.77 1012.94 1013.17 1013.43 1013.56 1013.11 1012.96 1012.83 1013.19 1012.32 1011.74 1011.27 1010.40 1009.86 1010.11 1010.48 1010.53 1010.70 1010.78 1010.98 1011.62 1011.82 1011.79 1011.57 1011.68 1011.00 1010.82 1009.25 1009.54 1008.88 1008.43 1007.30 1007.35 1007.42 1007.90 1007.62 1006.89 1007.09 1006.92 1007.68 1007.81 1009.01
1012.11 1012.34 1012.57 1012.85 1013.14 1013.43 1013.71 1013.62 1012.73 1012.95 1013.03 1013.36 1011.90 1010.66 1010.01 1009.92 1009.82 1009.86 1010.21 1010.35 1010.66 1011.16 1011.39 1011.49 1011.48 1011.44 1011.71 1010.62 1009.15 1008.39 1008.19 1007.56 1007.13 1006.78 1007.17 1007.02 1006.49 1006.42 1007.04 1007.54 1007.64 1007.51 1008.44 1009.65
1011.74 1012.03 1012.30 1012.59 1012.93 1013.33 1013.50 1013.47 1013.52 1013.02 1013.34 1013.76 1012.47 1010.66 1009.51 1009.54 1009.80 1009.91 1010.08 1010.30 1010.81 1011.24 1011.45 1011.29 1011.28 1011.13 1011.14 1010.13 1008.59 1007.98 1007.27 1006.69 1006.41 1006.54 1007.47 1006.54 1007.04 1007.18 1007.28 1007.60 1008.22 1008.84 1009.88 1010.69
1011.38 1011.72 1012.10 1012.50 1012.92 1013.22 1013.02 1013.08 1013.40 1013.21 1013.79 1013.77 1012.56 1010.66 1010.06 1009.79 1010.05 1010.18 1010.18 1010.56 1010.98 1011.06 1011.03 1010.62 1010.19 1010.16 1010.01 1008.33 1007.09 1006.40 1005.85 1005.71 1005.45 1005.93 1006.88 1006.47 1007.16 1007.25 1008.07 1008.34 1009.27 1010.06 1010.87 1011.83
1010.92 1011.37 1011.70 1012.36 1012.45 1012.46 1012.03 1012.81 1013.37 1013.96 1014.23 1012.95 1011.72 1010.31 1009.75 1009.99 1009.81 1009.92 1009.98 1010.24 1010.36 1010.18 1009.88 1009.55 1009.55 1008.54 1007.16 1005.99 1005.90 1005.21 1004.50 1004.32 1003.89 1004.06 1005.79 1006.41 1007.23 1008.07 1008.97 1009.46 1010.24 1010.96 1011.96 1012.91
1009.80 1010.36 1011.02 1010.91 1010.84 1010.75 1011.98 1013.04 1013.25 1013.72 1013.25 1012.47 1010.54 1009.67 1009.66 1009.78 1009.44 1009.26 1009.65 1009.81 1009.43 1008.66 1008.02 1008.07 1007.63 1006.20 1005.59 1005.27 1004.91 1004.18 1003.54 1003.20 1003.14 1003.57 1004.90 1006.39 1007.57 1008.41 1009.21 1009.94 1010.77 1011.75 1012.62 1013.21
1008.97 1009.46 1009.72 1009.50 1010.05 1010.30 1011.15 1011.37 1011.46 1011.38 1010.69 1009.28 1008.14 1008.21 1008.40 1008.49 1008.69 1008.92 1008.79 1008.64 1008.20 1007.39 1006.34 1006.43 1005.08 1004.05 1003.71 1003.59 1003.32 1003.32 1003.31 1003.08 1003.00 1003.28 1003.85 1005.35 1006.98 1008.53 1009.64 1010.43 1011.31 1012.22 1012.93 1013.42
1008.14 1008.28 1008.73 1009.50 1009.25 1009.28 1009.42 1009.32 1008.78 1008.26 1007.02 1005.88 1005.91 1006.15 1006.71 1007.62 1007.73 1008.07 1007.85 1007.47 1006.99 1006.09 1005.55 1005.35 1003.70 1002.54 1001.99 1001.79 1001.68 1001.55 1001.65 1001.91 1002.36 1002.95 1003.74 1004.96 1006.43 1008.05 1009.75 1010.76 1011.67 1012.47 1012.94 1013.84
1007.90 1007.85 1008.27 1008.12 1007.97 1007.34 1006.72 1006.20 1005.70 1005.05 1004.50 1004.52 1004.64 1005.29 1006.30 1007.34 1007.33 1007.45 1007.10 1006.65 1006.07 1005.52 1005.25 1004.34 1003.00 1002.36 1002.65 1002.88 1002.94 1002.78 1002.43 1002.01 1001.49 1002.37 1003.70 1005.45 1007.03 1008.59 1009.91 1011.06 1011.98 1012.73 1013.75 1014.82
1006.62 1006.78 1007.00 1006.43 1005.66 1004.82 1003.82 1003.34 1003.13 1003.10 1003.36 1003.69 1004.22 1005.22 1005.67 1006.03 1006.71 1006.50 1006.35 1005.76 1005.29 1005.27 1004.87 1003.98 1004.25 1004.49 1004.58 1004.55 1004.72 1004.65 1004.76 1004.29 1003.80 1004.11 1005.09 1006.55 1007.74 1009.20 1010.43 1011.55 1012.37 1013.21 1014.57 1015.69
1005.93 1005.67 1005.16 1004.65 1004.06 1004.15 1003.89 1003.42 1002.91 1002.64 1002.72 1003.03 1004.03 1004.74 1005.03 1005.30 1005.77 1005.76 1005.74 1005.58 1005.07 1004.81 1004.69 1005.32 1005.74 1005.79 1005.90 1006.02 1006.15 1006.21 1006.20 1006.06 1006.12 1006.38 1006.96 1007.80 1008.77 1010.11 1011.31 1012.25 1012.99 1014.03 1015.31 1016.29
1005.36 1005.16 1005.06 1004.59 1004.29 1004.46 1004.25 1003.85 1003.39 1002.85 1002.87 1003.11 1003.80 1004.02 1004.43 1004.70 1004.83 1005.07 1005.05 1004.92 1004.75 1005.49 1006.18 1006.61 1006.65 1006.79 1006.92 1007.02 1007.13 1007.16 1007.22 1007.25 1007.40 1007.74 1008.26 1008.95 1009.94 1010.87 1011.93 1012.97 1013.90 1014.90 1015.81 1016.60
1005.62 1005.56 1005.67 1005.47 1005.18 1004.72 1004.64 1004.27 1003.88 1003.64 1003.46 1003.64 1003.88 1003.94 1004.02 1004.31 1004.42 1004.49 1004.58 1005.38 1006.15 1006.66 1007.06 1007.38 1007.69 1007.90 1007.78 1007.85 1007.95 1008.01 1008.12 1008.30 1008.52 1008.90 1009.44 1010.11 1010.85 1011.70 1012.59 1013.64 1014.81 1015.53 1016.27 1016.96
Wind_Speed
9 8 8 7 8 11 7 2 8 8 11 9 4 7 18 20 25 24 22 23 14 20 17 18 19 19 10 9 10 10 5 4 10 16 16 16 12 10 15 8 11 8 9 15
10 9 8 9 7 9 3 3 3 6 10 10 12 17 22 25 23 24 24 23 15 19 20 17 21 18 10 5 4 4 9 6 9 12 11 12 11 9 12 10 9 13 11 11
11 11 12 11 11 11 8 3 3 3 2 4 17 19 21 23 24 26 26 24 20 19 10 18 21 18 8 8 9 5 3 8 11 11 14 15 6 10 13 4 5 11 14 20
12 12 12 12 11 11 7 4 5 6 3 10 19 19 16 21 26 22 20 22 18 20 16 16 20 16 14 17 12 9 6 12 15 18 21 23 24 21 21 15 14 9 15 19
13 13 12 12 11 10 5 3 4 5 13 21 24 20 21 24 19 19 18 15 17 16 19 17 18 15 13 9 10 16 13 12 15 17 19 21 23 23 23 20 20 18 20 23
14 14 13 13 13 11 2 0 4 3 7 22 18 19 27 19 23 17 13 14 1 10 11 10 9 9 10 9 11 11 10 2 9 15 18 19 15 21 20 16 18 16 17 21
15 14 14 14 14 17 3 3 3 5 10 10 12 19 25 23 20 16 9 12 12 5 5 10 8 9 14 13 13 11 11 12 9 11 14 18 17 17 20 20 18 18 18 16
14 13 14 15 15 15 3 2 3 3 5 10 14 19 18 20 17 14 14 4 7 8 3 3 6 8 11 15 16 17 16 13 11 13 14 18 23 23 17 18 20 20 15 14
12 12 11 10 10 12 7 5 4 2 3 3 6 3 17 12 12 11 3 13 10 4 4 3 4 10 11 10 17 20 20 17 14 15 16 21 23 25 23 17 15 16 7 10
11 11 10 9 9 8 4 2 7 2 2 5 9 6 5 2 7 9 10 12 8 8 5 6 7 11 13 14 13 18 10 14 19 17 18 16 24 23 24 3 12 6 7 6
8 8 9 10 10 14 5 3 6 3 3 5 6 5 4 4 3 2 9 9 5 6 7 5 6 7 11 15 18 19 16 6 7 13 19 21 10 16 17 12 11 6 7 10
7 8 8 9 15 14 10 2 5 4 2 2 6 9 10 5 4 1 3 1 2 4 7 7 5 7 6 11 14 15 18 16 12 8 3 15 14 6 14 6 11 0 6 9
6 7 8 8 10 14 13 1 3 3 2 5 8 10 8 9 8 5 3 3 7 10 6 2 3 6 8 10 12 15 20 17 13 14 17 15 18 15 17 7 4 5 2 10
5 6 6 7 8 9 10 6 4 3 2 3 4 5 10 13 10 11 12 14 10 7 6 5 5 7 7 10 14 16 12 14 15 16 15 16 19 20 12 10 6 4 3 6
8 7 7 8 8 7 6 6 5 4 5 4 5 12 14 12 13 16 14 12 11 8 6 6 8 8 9 10 12 16 11 13 10 12 15 10 17 14 3 7 11 7 10 10
10 10 10 10 9 8 2 3 6 8 5 3 4 5 8 9 11 13 15 11 10 9 9 6 8 14 5 7 14 19 19 19 18 14 15 21 11 8 6 4 7 10 9 11
12 13 12 11 10 7 4 1 2 6 4 2 4 4 5 12 8 9 7 9 6 7 8 9 10 9 6 9 17 17 19 19 17 15 14 14 7 3 6 9 10 13 13 11
11 12 12 11 10 9 6 8 2 1 3 3 4 5 3 6 4 3 6 5 5 5 7 7 11 9 10 11 13 16 17 19 18 7 17 12 7 8 6 12 13 14 13 13
17 21 22 9 8 6 4 10 7 1 2 3 4 4 5 4 4 4 4 5 5 4 6 9 7 9 11 9 16 17 18 14 14 6 19 9 11 11 11 12 14 14 13 13
19 7 2 4 5 12 17 4 7 4 3 4 6 4 6 7 5 3 5 4 5 5 8 7 10 14 19 20 19 19 17 14 10 6 8 9 8 10 14 15 12 11 12 13
3 4 4 4 24 5 3 5 6 6 6 7 8 11 8 7 7 5 6 4 4 5 5 8 6 9 15 22 24 22 21 20 17 12 11 15 14 13 11 12 13 12 13 13
5 3 5 4 4 4 6 7 6 8 7 7 10 10 9 3 5 4 6 4 4 7 1 5 4 5 13 11 11 13 18 22 20 19 10 14 15 14 11 11 11 13 11 9
4 3 5 4 4 8 8 11 6 6 4 4 7 8 5 5 4 3 4 5 5 2 3 4 4 8 10 8 9 10 10 13 11 9 12 16 16 14 13 11 8 12 12 11
4 5 7 6 6 6 6 7 8 6 6 8 8 6 5 4 6 3 4 5 2 3 4 4 5 9 9 8 8 8 8 10 10 12 16 15 15 13 11 11 12 14 13 12
3 4 5 6 2 4 3 3 2 3 9 9 9 4 5 6 3 4 4 3 5 5 1 3 5 8 8 6 4 4 4 4 6 9 11 12 14 13 13 12 12 13 12 12
2 2 4 3 3 2 1 1 1 3 5 6 5 4 4 4 3 5 6 4 3 3 3 3 6 7 6 4 3 3 3 4 6 7 11 13 13 14 14 12 11 11 11 12
2 1 1 2 4 2 1 3 3 4 4 4 3 4 5 3 4 5 1 4 3 3 3 3 5 6 4 3 3 3 5 7 9 10 10 11 12 13 12 12 10 10 9 9
Wind_Direction
236 248 275 271 280 219 198 243 220 211 153 204 206 221 227 250 260 274 271 262 246 277 280 291 295 281 286 10 342 293 139 277 266 246 201 268 295 197 284 278 235 237 248 252
243 243 252 265 268 232 183 214 266 254 182 214 213 231 243 249 258 256 261 260 236 249 267 270 275 275 82 215 246 308 353 254 272 261 256 252 267 329 347 326 306 243 252 265
242 249 248 257 266 271 217 137 237 251 213 220 223 225 240 249 242 245 257 265 289 259 248 278 275 269 137 267 250 143 42 282 272 277 293 309 296 310 295 266 288 304 250 264
248 255 261 254 256 275 220 205 205 186 217 215 220 223 241 246 249 252 252 245 239 274 241 269 267 276 258 189 226 213 230 254 266 273 276 279 285 280 273 255 236 220 283 290
249 253 257 259 245 256 239 234 221 198 236 225 213 227 237 247 251 233 236 247 259 270 266 256 269 336 276 305 247 230 224 251 270 274 270 271 272 275 268 271 280 275 280 280
251 253 252 251 242 216 176 159 292 275 279 230 201 210 215 223 233 244 216 237 349 285 295 345 325 311 271 245 284 303 275 241 261 258 269 268 269 254 275 275 267 260 260 265
254 253 252 252 241 214 182 182 251 235 244 242 195 191 211 231 241 234 209 194 200 130 201 280 231 259 280 267 260 257 265 263 254 272 284 272 260 264 264 275 264 259 258 259
259 260 255 251 237 227 192 185 246 222 250 202 225 217 217 225 228 228 235 140 87 141 98 291 264 250 260 264 257 253 253 262 265 259 257 273 282 267 268 265 273 280 294 300
257 257 254 234 218 219 189 188 195 250 283 239 248 279 247 229 213 219 221 145 162 150 120 123 258 250 251 245 236 234 241 243 241 247 246 251 252 262 262 284 280 283 8 319
251 247 232 195 186 169 155 202 201 154 287 262 247 244 308 359 226 205 170 161 163 177 183 212 230 254 268 264 261 262 230 230 232 235 240 256 262 280 300 159 273 342 326 303
225 211 202 181 143 124 129 257 225 243 215 279 321 293 236 134 122 307 161 172 187 176 203 216 220 252 260 267 263 263 275 239 233 260 255 252 276 274 269 302 322 343 233 78
186 182 185 186 179 176 191 162 235 223 286 320 306 306 314 311 302 142 133 144 12 191 204 212 225 246 258 269 270 275 264 272 281 201 257 312 304 286 302 189 260 223 105 113
191 183 183 184 182 193 207 233 177 206 247 294 254 243 248 255 266 287 280 236 231 193 252 266 239 249 267 267 263 266 268 280 287 286 279 296 290 236 232 268 289 126 14 155
187 189 195 194 198 198 215 246 190 265 251 271 273 257 249 246 237 233 240 258 281 281 279 239 245 248 249 265 284 276 281 296 290 283 292 305 279 283 218 216 226 126 132 190
215 218 219 214 212 207 229 268 288 260 259 314 319 304 280 272 219 238 237 236 249 255 253 248 248 254 272 264 270 262 274 274 265 272 282 241 268 311 320 186 202 207 157 154
237 236 232 225 223 218 239 333 234 234 235 275 276 343 270 252 256 226 231 238 232 235 249 246 251 261 271 256 244 255 251 249 252 266 283 293 279 205 178 160 155 135 130 145
234 238 236 232 223 211 186 215 4 297 159 212 272 249 225 218 233 236 223 238 236 234 244 241 252 252 251 243 256 268 267 273 275 267 317 275 324 179 149 127 115 115 127 122
228 227 225 224 240 253 235 239 291 199 98 211 253 256 179 200 183 223 207 211 223 223 229 244 236 240 237 250 257 261 258 260 265 172 254 229 153 99 105 131 133 137 139 130
253 250 249 244 219 198 210 199 215 166 273 228 227 242 278 167 213 206 182 182 217 213 220 229 232 231 227 235 239 251 257 251 254 200 195 143 147 143 164 155 159 148 138 148
244 212 142 207 191 145 111 97 169 181 220 233 248 212 228 211 184 192 150 181 222 227 216 217 227 247 251 249 259 273 281 291 291 293 132 146 152 164 171 175 158 149 157 167
152 160 188 100 151 132 167 153 185 171 214 215 220 218 214 198 191 194 205 191 210 243 217 196 234 236 237 236 242 248 258 265 273 272 215 171 164 171 170 170 155 156 178 163
180 118 99 153 175 168 193 173 191 201 218 197 200 205 196 187 149 204 190 225 215 244 69 198 249 224 230 243 244 249 235 232 233 237 161 163 160 155 161 158 157 178 159 130
162 170 176 201 177 193 203 179 190 200 176 179 172 180 157 174 196 211 208 222 233 220 216 218 233 42 41 25 4 344 349 342 218 169 127 118 124 134 148 154 149 120 115 124
201 165 191 239 183 226 216 210 199 174 152 177 162 156 187 171 171 225 225 225 235 241 228 228 37 15 4 17 9 358 7 13 56 106 121 128 132 137 139 133 133 124 128 130
205 220 217 213 238 59 25 328 284 147 169 169 157 171 207 179 164 213 233 235 228 224 342 46 0 5 354 2 7 20 27 51 85 109 119 123 120 124 123 127 126 121 125 131
290 293 292 314 254 125 52 2 37 193 180 163 173 172 187 186 205 196 217 244 232 63 43 11 349 358 347 2 38 62 60 81 95 99 117 119 124 127 123 113 115 124 134 142
299 198 291 298 298 27 154 202 192 238 176 163 171 196 199 194 224 213 224 9 54 37 32 6 18 333 352 66 75 74 102 101 105 108 106 109 115 121 121 125 131 132 132 130